Regional Weather Roundup
Issued by NWS Newport/Morehead, NC

Current Version | Previous Version | Text Only | Print | Product List | Glossary Off
Versions: 1 2 3 4 5 6 7 8 9 10 11 12 13 14 15 16 17 18 19 20 21 22 23 24 25 26 27 28 29 30 31 32 33 34 35 36 37 38 39 40 41 42 43 44 45 46 47 48 49 50
000 ASUS42 KMHX 020010 RWRMHX WEATHER ROUNDUP FOR EASTERN NORTH CAROLINA NATIONAL WEATHER SERVICE NEWPORT/MOREHEAD CITY NC 800 PM EDT WED OCT 01 2014 NOTE: "FAIR" INDICATES FEW OR NO CLOUDS BELOW 12,000 FEET WITH NO SIGNIFICANT WEATHER AND/OR OBSTRUCTIONS TO VISIBILITY NCZ015>017-031-032-045>047-102-103-020100- NORTH COAST CITY SKY/WX TMP DP RH WIND PRES REMARKS EDENTON CLEAR 67 64 89 E5 30.00S ELIZABETH CITY CLEAR 68 63 84 NE8 30.01R KITTY HAWK CLEAR 69 64 84 NE6 29.99S MANTEO CLEAR 69 64 84 NE9 30.00S $$ NCZ045>047-081-094-103-104-020100- CENTRAL COAST CITY SKY/WX TMP DP RH WIND PRES REMARKS FRISCO CLEAR 68 64 87 NE6 30.00R SWANQUARTER N/A 68 N/A N/A NE2 29.97S $$ NCZ095-097-098-100-101-020100- SOUTHERN COAST CITY SKY/WX TMP DP RH WIND PRES REMARKS BEAUFORT CLEAR 71 66 84 E3 30.00R CEDAR ISLAND N/A 73 N/A N/A NE13 30.03S JACKSONVILLE PTCLDY 74 64 71 NE3 29.99R NEWPORT NOT AVBL PINEY ISLAND CLEAR 74 67 78 E9 29.99R WILMINGTON CLEAR 70 67 90 CALM 29.99R $$ NCZ011>013-027>030-043-044-078>080-089-090>093-098-020100- COASTAL PLAIN CITY SKY/WX TMP DP RH WIND PRES REMARKS AHOSKIE CLEAR 65 64 96 E5 30.00S CLINTON PTCLDY 70 68 92 CALM 30.01R ELIZABETHTOWN PTCLDY 71 67 85 CALM 30.00R GOLDSBORO CLEAR 69 68 98 CALM 29.99R GREENVILLE CLEAR 68 66 94 CALM 30.02S HAVELOCK CLEAR 71 67 87 CALM 30.00R KENANSVILLE PTCLDY 67 65 93 CALM 30.01R KINSTON CLEAR 68 64 88 CALM 30.01R NEW BERN CLEAR 71 64 78 CALM 30.00R RICHLANDS PTCLDY 70 63 78 CALM 30.00R ROANOKE RAPIDS NOT AVBL ROCKY MOUNT CLEAR 66 64 93 CALM 30.00S WASHINGTON CLEAR 67 64 91 CALM 30.01R WHITEVILLE CLEAR 70 66 87 CALM 29.99R $$ AMZ130-135-150-152-154-156-158-170-250-252-270-ANZ085-086-088-633-658-670-020100- MARINE OBSERVATIONS STATION/POSITION TIME TEMP WIND PRES WAVE SWELL AIR SEA DIR/SP/G HT/PER HT/PER (UTC) (F) (DEG/KT/KT) (MB) (FT/S) (FT/S) CHESAPEAKE LIGHT 2300 69 40/ 12/ 12 1016.3 BUOY 44014 0000 69 71 10/ 14/ 16 1015.3 5/ 7 3/14 DUCK 0000 70 73 30/ 13/ 15 1015.2 2E DUCK NOT AVBL OREGON INLET 0000 70 74 20/ 12/ 16 1015.6 BUOY 44095 NOT AVBL 20E OREGON INLET NOT AVBL HATTERAS CG 0000 71 75 30/ 10/ 12 1016.1 DIAMOND BUOY 0000 71 10/ 16/ 19 1015.3 3/ 7 2/ 7 CAPE LOOKOUT 2300 74 50/ 12/ 13 1014.9 BEAUFORT LAB 0000 73 75 90/ 3/ 5 1015.0 30 SE NEW RIVER 2300 76 79 60/ 6/ 8 1014.9 5 SE WRIGHTSVILL NOT AVBL BUOY 41002 2243 80 81 40/ 10/ 14 1013.1 4/ 6 3/ 6 BUOY 41004 0000 76 81 40/ 8/ 10 1015.5 2/ 5 2/ 5 $$

USA.gov is the U.S. government's official web portal to all federal, state and local government web resources and services.